Redding, CA

7:08 AM PST on November 20, 2019 (GMT -0800)
Redding Municipal

Weather History for KRDD - September, 2019

Change the Weather History Date:

Wednesday, September 4, 2019

  Actual Average Record
Temperature  
Mean Temperature 80 °F -  
Max Temperature 100 °F 93 °F 115 °F (1988)
Min Temperature 60 °F 60 °F 45 °F (1947)
Degree Days  
Heating Degree Days 0    
Cooling Degree Days 15    
Growing Degree Days 30 (Base 50)    
Moisture  
Dew Point 45 °F    
Average Humidity 36    
Maximum Humidity 60    
Minimum Humidity 11    
Precipitation  
Precipitation T in 0.02 in 0.35 in (1900)
Month to date precipitation T 0.06  
Year to date precipitation 32.27 21.19  
Sea Level Pressure  
Sea Level Pressure 29.83 in    
Wind  
Wind Speed 2 mph (ESE)    
Max Wind Speed 14 mph    
Max Gust Speed 17 mph    
Visibility 10 miles    
Events Rain    
T = Trace of Precipitation, MM = Missing Value Source: NWS Daily Summary

Daily Weather History Graph

Daily Weather History Graph

Search for Another Location

Airport or City:

Astronomy

Sep. 04, 2019 Rise Set
Actual Time 6:39 AM PDT 7:36 PM PDT
Civil Twilight 6:11 AM PDT 8:04 PM PDT
Nautical Twilight 5:38 AM PDT 8:37 PM PDT
Astronomical Twilight 5:03 AM PDT 9:11 PM PDT
Moon 12:47 PM PDT (9/4) 11:13 PM PDT (9/4)
Length of Visible Light 13h 52m
Length of Day
12h 57m
Waxing Crescent, 36% of the Moon is Illuminated
Sep 4
Waxing Crescent
Sep 5
First Quarter
Sep 13
Full
Sep 21
Last Quarter
Sep 28
New

Hourly Weather History & Observations

Time (PDT) Temp. Dew Point Humidity Pressure Visibility Wind Dir Wind Speed Gust Speed Precip Events Conditions
12:53 AM 68.0 °F 46.0 °F 45% 29.87 in 10.0 mi Calm Calm - N/A   Clear
1:53 AM 66.0 °F 46.0 °F 48% 29.87 in 10.0 mi North 3.5 mph - N/A   Clear
2:53 AM 64.9 °F 46.0 °F 50% 29.86 in 10.0 mi Calm Calm - N/A   Clear
3:53 AM 66.9 °F 45.0 °F 45% 29.85 in 10.0 mi NNW 5.8 mph - N/A   Clear
4:53 AM 64.0 °F 46.9 °F 54% 29.85 in 10.0 mi Calm Calm - N/A   Clear
5:53 AM 63.0 °F 48.0 °F 58% 29.85 in 10.0 mi Calm Calm - N/A   Clear
6:53 AM 62.1 °F 48.0 °F 60% 29.86 in 10.0 mi Calm Calm - N/A   Clear
7:53 AM 66.9 °F 48.0 °F 51% 29.87 in 10.0 mi Calm Calm - N/A   Clear
8:53 AM 75.0 °F 45.0 °F 34% 29.87 in 10.0 mi NNE 3.5 mph - N/A   Clear
9:53 AM 82.0 °F 43.0 °F 25% 29.87 in 10.0 mi North 4.6 mph - N/A   Clear
10:53 AM 88.0 °F 39.9 °F 18% 29.85 in 10.0 mi Calm Calm - N/A   Clear
11:53 AM 91.0 °F 39.9 °F 17% 29.83 in 10.0 mi Calm Calm - N/A   Clear
12:53 PM 97.0 °F 37.9 °F 13% 29.81 in 10.0 mi Calm Calm - N/A   Clear
1:53 PM 98.1 °F 39.0 °F 13% 29.80 in 10.0 mi South 8.1 mph - N/A   Clear
2:53 PM 97.0 °F 32.0 °F 10% 29.80 in 10.0 mi SSE 8.1 mph - N/A   Clear
3:53 PM 97.0 °F 33.1 °F 11% 29.79 in 10.0 mi SSE 11.5 mph - N/A   Mostly Cloudy
4:53 PM 95.0 °F 42.1 °F 16% 29.78 in 10.0 mi South 11.5 mph - 0.00 in Rain Light Rain
5:53 PM 95.0 °F 44.1 °F 17% 29.76 in 10.0 mi South 4.6 mph - 0.00 in   Clear
6:53 PM 93.0 °F 46.0 °F 20% 29.76 in 10.0 mi ESE 4.6 mph - N/A   Clear
7:53 PM 88.0 °F 48.0 °F 25% 29.77 in 10.0 mi Calm Calm - N/A   Clear
8:53 PM 82.9 °F 50.0 °F 32% 29.79 in 10.0 mi Calm Calm - N/A   Clear
9:53 PM 79.0 °F 52.0 °F 39% 29.80 in 10.0 mi Calm Calm - N/A   Clear
10:53 PM 78.1 °F 52.0 °F 40% 29.83 in 10.0 mi Calm Calm - N/A   Clear
11:53 PM 77.0 °F 53.1 °F 43% 29.83 in 10.0 mi NNE 4.6 mph - N/A   Clear